EW5331 Weather Reports


time (UTC)temp
C
wind
direction
speed
KPH
gust
KPH
rain 1hr
cm
rain 24hr
cm
rain mn
cm
humidity
%
barometer
mb
20260504014508 11 186 0.0 0.0 0.00 0.00 0.00 65 1014.0
20260504014101 11 186 0.0 0.0 0.00 0.00 0.00 64 1014.0
20260504013552 12 186 0.0 0.0 0.00 0.00 0.00 65 1014.0
20260504013049 12 186 0.0 0.0 0.00 0.00 0.00 64 1013.7
20260504012538 12 186 0.0 0.0 0.00 0.00 0.00 63 1013.5
20260504012031 13 186 0.0 0.0 0.00 0.00 0.00 61 1013.4
20260504011525 13 186 0.0 0.0 0.00 0.00 0.00 60 1013.4
20260504011018 13 186 0.0 0.0 0.00 0.00 0.00 59 1013.4
20260504010515 13 186 0.0 0.0 0.00 0.00 0.00 59 1013.5
20260504010005 14 186 0.0 0.0 0.00 0.00 0.00 58 1013.5
20260504005559 14 186 0.0 0.0 0.00 0.00 0.00 58 1013.4
20260504005053 15 186 0.0 0.0 0.00 0.00 0.00 57 1013.4
20260504004559 15 186 0.0 0.0 0.00 0.00 0.00 55 1013.4
20260504004037 15 186 0.0 3.2 0.00 0.00 0.00 56 1013.3
20260504003532 15 186 0.0 4.8 0.00 0.00 0.00 56 1013.2
20260504003023 15 186 1.6 4.8 0.00 0.00 0.00 52 1013.3
20260504002515 15 174 1.6 8.0 0.00 0.00 0.00 51 1013.1
20260504002008 16 179 3.2 8.0 0.00 0.00 0.00 51 1013.2
20260504001502 16 205 1.6 6.4 0.00 0.00 0.00 51 1013.3
20260504001100 16 194 1.6 8.0 0.00 0.00 0.00 51 1013.3
20260504000548 16 192 1.6 11.3 0.00 0.00 0.00 50 1013.2
20260504000043 16 188 4.8 9.7 0.00 0.00 0.00 50 1013.2
20260503235535 16 190 1.6 6.4 0.00 0.00 0.00 50 1013.3
20260503235029 16 188 0.0 9.7 0.00 0.00 0.00 50 1013.3
20260503234522 16 188 3.2 9.7 0.00 0.00 0.00 49 1013.3
20260503234015 16 213 1.6 9.7 0.00 0.00 0.00 49 1013.2
20260503233509 16 196 1.6 12.9 0.00 0.00 0.00 49 1013.2
20260503233002 16 196 6.4 12.9 0.00 0.00 0.00 47 1013.2
20260503232554 16 178 3.2 9.7 0.00 0.00 0.00 47 1013.3
20260503232048 16 185 1.6 8.0 0.00 0.00 0.00 47 1013.3
20260503231545 17 248 0.0 8.0 0.00 0.00 0.00 49 1013.5
20260503231031 17 248 3.2 12.9 0.00 0.00 0.00 49 1013.6
20260503230523 17 223 4.8 12.9 0.00 0.00 0.00 47 1013.7
20260503230013 17 259 1.6 8.0 0.00 0.00 0.00 47 1013.8
20260503225506 17 212 1.6 9.7 0.00 0.00 0.00 47 1013.8
20260503225059 17 264 1.6 9.7 0.00 0.00 0.00 46 1014.0
20260503224553 17 246 1.6 11.3 0.00 0.00 0.00 46 1014.2
20260503224045 17 240 3.2 11.3 0.00 0.00 0.00 45 1014.2
20260503223537 17 280 3.2 9.7 0.00 0.00 0.00 46 1014.3
20260503223029 17 202 3.2 9.7 0.00 0.00 0.00 45 1014.3
20260503222520 17 288 3.2 11.3 0.00 0.00 0.00 45 1014.2
20260503222015 17 300 3.2 16.1 0.00 0.00 0.00 44 1014.2
20260503221506 17 171 8.0 17.7 0.00 0.00 0.00 44 1014.3
20260503221105 17 254 1.6 11.3 0.00 0.00 0.00 46 1014.4
20260503220550 17 254 1.6 6.4 0.00 0.00 0.00 45 1014.7
20260503220042 17 229 1.6 11.3 0.00 0.00 0.00 43 1014.8
20260503215535 17 258 4.8 12.9 0.00 0.00 0.00 44 1014.9
20260503215028 17 165 4.8 12.9 0.00 0.00 0.00 43 1014.9
20260503214520 17 243 4.8 16.1 0.00 0.00 0.00 44 1015.1
20260503214014 17 220 6.4 16.1 0.00 0.00 0.00 43 1015.2
20260503213505 17 296 3.2 11.3 0.00 0.00 0.00 42 1015.2
20260503213103 17 243 3.2 11.3 0.00 0.00 0.00 43 1015.4
20260503212555 17 256 4.8 17.7 0.00 0.00 0.00 42 1015.0
20260503212047 17 250 4.8 17.7 0.00 0.00 0.00 42 1014.7
20260503211541 17 254 3.2 9.7 0.00 0.00 0.00 43 1014.9
20260503211029 17 145 3.2 27.4 0.00 0.00 0.00 42 1015.3
20260503210521 17 279 1.6 27.4 0.00 0.00 0.00 41 1015.3
20260503210014 17 298 3.2 17.7 0.00 0.00 0.00 42 1015.5
20260503205509 17 217 3.2 11.3 0.00 0.00 0.00 41 1015.5
20260503205001 17 197 4.8 12.9 0.00 0.00 0.00 42 1015.5
20260503204556 17 198 4.8 17.7 0.00 0.00 0.00 42 1015.5
20260503204047 17 183 1.6 17.7 0.00 0.00 0.00 42 1015.5
20260503203541 17 170 6.4 14.5 0.00 0.00 0.00 41 1015.6
20260503203032 17 161 0.0 12.9 0.00 0.00 0.00 43 1015.7
20260503202523 17 246 4.8 12.9 0.00 0.00 0.00 41 1015.9
20260503202014 17 275 3.2 9.7 0.00 0.00 0.00 41 1016.0
20260503201505 17 272 3.2 8.0 0.00 0.00 0.00 42 1016.0
20260503201058 17 275 1.6 14.5 0.00 0.00 0.00 42 1016.2
20260503200551 17 254 8.0 14.5 0.00 0.00 0.00 41 1016.3
20260503200043 17 244 3.2 16.1 0.00 0.00 0.00 40 1016.5
20260503195533 17 175 4.8 9.7 0.00 0.00 0.00 42 1016.7
20260503195024 17 235 3.2 11.3 0.00 0.00 0.00 43 1016.8
20260503194515 17 271 4.8 11.3 0.00 0.00 0.00 40 1017.1
20260503194008 17 262 3.2 9.7 0.00 0.00 0.00 41 1017.1
20260503193601 17 264 1.6 16.1 0.00 0.00 0.00 41 1017.1
20260503193056 17 147 4.8 16.1 0.00 0.00 0.00 41 1017.2
20260503192545 17 235 3.2 19.3 0.00 0.00 0.00 42 1017.2
20260503192036 17 137 9.7 19.3 0.00 0.00 0.00 41 1017.3
20260503191528 17 245 4.8 12.9 0.00 0.00 0.00 41 1017.5
20260503191023 17 203 1.6 11.3 0.00 0.00 0.00 43 1017.5
20260503190515 17 253 1.6 12.9 0.00 0.00 0.00 41 1017.5
20260503190001 17 277 4.8 12.9 0.00 0.00 0.00 43 1017.7
20260503185555 17 296 3.2 8.0 0.00 0.00 0.00 43 1017.8
20260503185047 17 181 3.2 12.9 0.00 0.00 0.00 45 1017.7
20260503184554 17 254 6.4 12.9 0.00 0.00 0.00 42 1018.0
20260503184032 17 176 1.6 11.3 0.00 0.00 0.00 44 1017.9
20260503183524 16 160 4.8 11.3 0.00 0.00 0.00 43 1018.1
20260503183014 16 199 3.2 11.3 0.00 0.00 0.00 44 1018.1
20260503182505 16 165 4.8 12.9 0.00 0.00 0.00 44 1018.3
20260503182059 16 194 3.2 16.1 0.00 0.00 0.00 45 1018.4
20260503181552 16 186 8.0 16.1 0.00 0.00 0.00 46 1018.4
20260503181042 16 41 3.2 12.9 0.00 0.00 0.00 46 1018.4
20260503180534 16 153 4.8 12.9 0.00 0.00 0.00 44 1018.5
20260503180026 16 201 3.2 12.9 0.00 0.00 0.00 45 1018.6
20260503175521 16 192 8.0 12.9 0.00 0.00 0.00 45 1018.7
20260503175009 15 259 6.4 19.3 0.00 0.00 0.00 46 1018.7
20260503174620 15 199 4.8 19.3 0.00 0.00 0.00 45 1018.8
20260503174052 15 247 4.8 16.1 0.00 0.00 0.00 45 1019.0
20260503173545 16 138 4.8 12.9 0.00 0.00 0.00 44 1019.1
20260503173041 16 149 3.2 8.0 0.00 0.00 0.00 45 1019.2
20260503172529 16 261 1.6 8.0 0.00 0.00 0.00 46 1019.3
20260503172022 16 271 4.8 8.0 0.00 0.00 0.00 45 1019.4
20260503171514 15 196 3.2 9.7 0.00 0.00 0.00 47 1019.3
20260503171009 15 259 3.2 19.3 0.00 0.00 0.00 48 1019.5
20260503170600 15 233 8.0 19.3 0.00 0.00 0.00 47 1019.5
20260503151004 13 259 3.2 6.4 0.00 0.00 0.00 60 1020.8
20260503150558 13 198 3.2 8.0 0.00 0.00 0.00 60 1020.8
20260503131027 6 170 3.2 6.4 0.00 0.00 0.00 90 1020.8
20260503130512 5 169 1.6 6.4 0.00 0.00 0.00 91 1020.8
20260503110521 1 338 0.0 0.0 0.00 0.00 0.00 94 1020.0
20260503081537 1 338 0.0 0.0 0.00 0.00 0.00 92 1019.7
20260503081007 1 338 0.0 0.0 0.00 0.00 0.00 92 1019.6
20260503080601 1 338 0.0 0.0 0.00 0.00 0.00 92 1019.5
20260503072601 2 338 0.0 0.0 0.00 0.00 0.00 91 1019.1
20260503072053 2 338 0.0 0.0 0.00 0.00 0.00 91 1019.1
20260503071546 2 338 0.0 0.0 0.00 0.00 0.00 91 1019.1
20260503071036 2 338 0.0 0.0 0.00 0.00 0.00 91 1019.1
20260503070526 2 338 0.0 0.0 0.00 0.00 0.00 91 1019.1
20260503055027 3 338 0.0 0.0 0.00 0.00 0.00 90 1019.3
20260503054530 3 338 0.0 0.0 0.00 0.00 0.00 90 1019.3
20260503054015 3 338 0.0 0.0 0.00 0.00 0.00 90 1019.2
20260503053506 3 338 0.0 0.0 0.00 0.00 0.00 90 1019.1
20260503053101 3 338 0.0 0.0 0.00 0.00 0.00 90 1019.2
20260503052552 3 338 0.0 0.0 0.00 0.00 0.00 89 1019.2
20260503052045 3 338 0.0 0.0 0.00 0.00 0.00 89 1019.3
20260503051538 3 338 0.0 0.0 0.00 0.00 0.00 89 1019.2
20260503051031 3 338 0.0 0.0 0.00 0.00 0.00 89 1019.3
20260503050524 3 338 0.0 0.0 0.00 0.00 0.00 89 1019.3
20260503050016 4 338 0.0 0.0 0.00 0.00 0.00 89 1019.2
20260503045506 4 338 0.0 0.0 0.00 0.00 0.00 90 1019.2
20260503045059 4 338 0.0 0.0 0.00 0.00 0.00 90 1019.2
20260503044554 4 338 0.0 1.6 0.00 0.00 0.00 89 1019.2
20260503044043 4 338 0.0 1.6 0.00 0.00 0.00 89 1019.1
20260503043537 4 338 0.0 1.6 0.00 0.00 0.00 89 1019.1
20260503043029 4 338 0.0 1.6 0.00 0.00 0.00 89 1019.0
20260503042523 4 338 0.0 0.0 0.00 0.00 0.00 89 1019.0
20260503042013 5 338 0.0 0.0 0.00 0.00 0.00 89 1019.0
20260503041505 5 338 0.0 1.6 0.00 0.00 0.00 88 1018.9
20260503041056 5 338 0.0 1.6 0.00 0.00 0.00 88 1018.9
20260503040547 5 338 0.0 0.0 0.00 0.00 0.00 88 1019.0
20260503040039 5 338 0.0 1.6 0.00 0.00 0.00 88 1018.9
20260503035532 5 338 0.0 1.6 0.00 0.00 0.00 88 1018.9
20260503035026 5 338 0.0 0.0 0.00 0.00 0.00 87 1018.9
20260503034519 5 338 0.0 0.0 0.00 0.00 0.00 87 1018.9
20260503034012 5 338 0.0 0.0 0.00 0.00 0.00 87 1018.8
20260503033507 5 338 0.0 0.0 0.00 0.00 0.00 87 1018.8
20260503033100 5 338 0.0 0.0 0.00 0.00 0.00 87 1018.9
20260503032554 5 338 0.0 0.0 0.00 0.00 0.00 86 1018.8
20260503032048 5 338 0.0 1.6 0.00 0.00 0.00 86 1018.7
20260503031546 6 338 0.0 1.6 0.00 0.00 0.00 86 1018.7
20260503031034 6 338 0.0 1.6 0.00 0.00 0.00 86 1018.7
20260503030528 6 338 0.0 0.0 0.00 0.00 0.00 86 1018.7
20260503030020 6 338 0.0 1.6 0.00 0.00 0.00 86 1018.6
20260503025511 6 338 0.0 1.6 0.00 0.00 0.00 84 1018.6
20260503025002 6 338 0.0 0.0 0.00 0.00 0.00 84 1018.6
20260503024556 6 338 0.0 0.0 0.00 0.00 0.00 84 1018.5
20260503024048 6 338 0.0 0.0 0.00 0.00 0.00 84 1018.5
20260503023541 6 338 0.0 1.6 0.00 0.00 0.00 83 1018.3
20260503023032 6 338 0.0 1.6 0.00 0.00 0.00 83 1018.2
20260503022525 6 338 0.0 0.0 0.00 0.00 0.00 82 1018.2
20260503022020 6 338 0.0 0.0 0.00 0.00 0.00 82 1018.2
20260503021515 7 338 0.0 0.0 0.00 0.00 0.00 82 1018.2
20260503021005 7 338 0.0 0.0 0.00 0.00 0.00 82 1018.1
20260503020600 7 338 0.0 0.0 0.00 0.00 0.00 81 1018.0
20260503020056 7 338 0.0 0.0 0.00 0.00 0.00 80 1018.0
20260503015545 7 338 0.0 0.0 0.00 0.00 0.00 80 1017.9
20260503015040 7 338 0.0 0.0 0.00 0.00 0.00 80 1017.8